Location: Sawmill Trailhead
(33.5800°N, 116.4497°W)
Time: 01:43:04
(UTC-08:00)

Uosat F - Visible Passes

Search period start: 20 December 2014 00:00
Search period end: 30 December 2014 00:00
Orbit: 751 x 763 km, 98.7° (Epoch: 18 December)

Date Brightness Start Highest point End Pass type
(mag) Time Alt. Az. Time Alt. Az. Time Alt. Az.
20 Dec 13.0 04:20:43 10° NNE 04:29:33 18° S 04:30:44 10° SSW visible
21 Dec 13.5 03:50:01 14° SSE 03:50:01 14° SSE 03:50:52 10° SSE visible
21 Dec 13.2 05:21:06 10° NNW 05:21:10 10° NNW 05:21:10 10° NNW visible
22 Dec 13.2 04:41:09 10° N 04:50:29 13° SSW 04:50:58 10° SSW visible
23 Dec 13.3 04:10:56 15° S 04:10:56 15° S 04:11:45 10° S visible
24 Dec 13.3 05:01:47 10° N 05:01:49 10° N 05:01:49 10° N visible
25 Dec 13.3 04:31:49 13° SSW 04:31:49 13° SSW 04:32:16 10° SSW visible
26 Dec 13.7 03:52:15 11° SSE 03:52:15 11° SSE 03:52:26 10° SSE visible
28 Dec 13.6 04:13:06 11° S 04:13:06 11° S 04:13:17 10° S visible
